Location: Unspecified
(47.5840°N, 122.3000°W)
Time: 16:45:43
(UTC+00:00)

SL-24 R/B - Pass Details

Date: 09 December 2025
Orbit: 501 x 978 km, 97.4° (Epoch: 16 January)

Event Time Altitude Azimuth Distance (km) Brightness Sun altitude
Rises 13:32:56 0° 11° (N) 3,472 7.9 -21.4°
Reaches altitude 10° 13:35:29 10° 11° (N) 2,463 7.1 -21.0°
Maximum altitude 13:40:56 79° 285° (WNW) 779 4.3 -20.1°
Drops below altitude 10° 13:45:38 10° 199° (SSW) 2,134 6.7 -19.3°
Sets 13:47:43 0° 198° (SSW) 2,975 7.5 -19.0°
